Regional Weather Roundup
Issued by NWS

Home | Current Version | Previous Version | Text Only | Print | Product List | Glossary On
Versions: 1 2 3 4 5 6 7 8 9 10 11 12 13 14 15 16 17 18 19 20 21 22 23 24 25 26 27 28 29 30 31 32 33 34 35 36 37 38 39 40 41 42 43 44 45 46 47 48 49 50
000
ASUS43 KLSX 251310
RWRMO

WEATHER SUMMARY FOR MISSOURI
NATIONAL WEATHER SERVICE SPRINGFIELD MO
800 AM CDT SAT MAR 25 2017

NOTE: "FAIR" INDICATES FEW OR NO CLOUDS BELOW 12,000 FEET WITH NO
       SIGNIFICANT WEATHER AND/OR OBSTRUCTIONS TO VISIBILITY.
       CURRENT SKY AND/OR WEATHER CONDITIONS ARE NOT AVAILABLE FOR
       CHILLICOTHE AND FARMINGTON.

MOZ001>031-035>038-043-044-053-054-251400-
...NORTHERN AND WESTERN MISSOURI...

CITY           SKY/WX    TMP DP  RH WIND       PRES   REMARKS
KANSAS CTY INT FOG       53  53 100 N9        29.80R VSB 1/4
KANSAS C DTWN  CLOUDY    55  51  86 CALM      29.79R
LEE`S SUMMIT   LGT RAIN  51  49  92 NE5       29.79R
ST JOSEPH      LGT RAIN  49  49 100 N13       29.84R FOG
CHILLICOTHE      N/A     56  55  97 N3        29.82R
KIRKSVILLE     RAIN      54  53  97 NE10      29.81R VSB 1

$$
MOZ066>068-077>081-088>096-101>105-251400-
...SOUTHWEST MISSOURI...

CITY           SKY/WX    TMP DP  RH WIND       PRES   REMARKS
SPRINGFIELD    RAIN      53  51  93 S12       29.78R
JOPLIN         CLOUDY    52  52 100 NW14G21   29.80R
BRANSON        TSTM      52  52 100 CALM      29.80R

$$
MOZ032>034-039>042-045>050-055>058-069>072-251400-
...CENTRAL MISSOURI...

CITY           SKY/WX    TMP DP  RH WIND       PRES   REMARKS
COLUMBIA       CLOUDY    52  52 100 E7        29.80R
JEFFERSON CITY PTSUNNY   53  50  89 SE3       29.81R
ROLLA          PTSUNNY   53  51  93 SE17G29   29.78F
SEDALIA        CLEAR     50  49  96 SE5       29.79R
WHITEMAN AFB   PTCLDY    48  48 100 CALM      29.78R
WARRENSBURG    CLOUDY    50  46  87 N3        29.79R
OSAGE BEACH    CLEAR    N/A N/A N/A SE7       29.80R

$$
MOZ051-052-059>065-251400-
...EAST CENTRAL MISSOURI...

CITY           SKY/WX    TMP DP  RH WIND       PRES   REMARKS
ST LOUIS INTL  CLOUDY    58  53  84 S13       29.85R
SPIRIT OF STL  CLOUDY    56  53  90 VRB7      29.83S
ST CHARLES     CLOUDY    57  55  93 SE6       29.85R

$$
MOZ072>076-082>087-097>100-106>115-251400-
...SOUTH CENTRAL AND SOUTHEAST MISSOURI...

CITY           SKY/WX    TMP DP  RH WIND       PRES   REMARKS
CAPE GIRARDEAU LGT RAIN  55  53  93 SE15G23   29.92S
FARMINGTON     CLOUDY    55  54  94 S18       29.87F
POPLAR BLUFF   CLOUDY    56  55  97 SE9       29.91S
WEST PLAINS    CLOUDY    55  53  93 SE9       29.83R

$$



USA.gov is the U.S. government's official web portal to all federal, state and local government web resources and services.